Weather Roundup
Issued by NWS Chicago, IL

Home | Current Version | Previous Version | Graphics & Text | Print | Product List | Glossary On
Versions: 1 2 3 4 5 6 7 8 9 10 11 12 13 14 15 16 17 18 19 20 21 22 23 24 25 26 27 28 29 30 31 32 33 34 35 36 37 38 39 40 41 42 43 44 45 46 47 48 49 50
000
NZUS59 KLOT 222208
HRRLOT

CHICAGO AREA WEATHER ROUNDUP
NATIONAL WEATHER SERVICE CHICAGO/ROMEOVILLE IL
400 PM CST WED NOV 22 2017

NOTE: "FAIR" INDICATES FEW OR NO CLOUDS BELOW 12,000 FEET WITH NO
SIGNIFICANT WEATHER AND/OR OBSTRUCTIONS TO VISIBILITY.

* THESE STATIONS ARE NOT UNDER NWS QUALITY CONTROL. THEY ALSO MAY NOT
  REPORT WEATHER SUCH AS PRECIPITATION OR FOG.

ILZ005-006-012>014-019>023-222300-
NORTHEAST ILLINOIS

CITY           SKY/WX    TMP DP  RH WIND       PRES   REMARKS
OHARE          CLOUDY    33  15  47 W6        30.25F WCI  28
MIDWAY         MOCLDY    33  16  49 SW8       30.26F WCI  26
AURORA         CLOUDY    31  18  58 SW6       30.26F WCI  25
LANSING*       CLEAR     32  18  55 W3        30.28S
JOLIET*        CLOUDY    33  18  52 SW5       30.28F WCI  29
WAUKEGAN       PTCLDY    32  15  49 SW5       30.24F WCI  27
DUPAGE AIRPORT CLOUDY    31  17  56 SW6       30.25F WCI  25
WHEELING       PTCLDY    34  15  46 SW6       30.26F WCI  29
KANKAKEE*      CLEAR     32  17  52 W5        30.29S WCI  27
MORRIS*        CLOUDY    32  19  58 W5        30.27S WCI  27
LEWIS AIRPORT* CLOUDY    31  20  62 W5        30.27F WCI  27
NORTHERLY ISL    N/A     34  14  44 W5          N/A  WCI  30
$$

WIZ051-052-058>065-066-070>072-222300-
SOUTHEAST WISCONSIN

CITY           SKY/WX    TMP DP  RH WIND       PRES   REMARKS
MILWAUKEE      MOCLDY    33  14  45 SW8       30.23F WCI  26
KENOSHA*       CLOUDY    31  15  52 W6        30.24S WCI  25
RACINE*        MOCLDY    32  14  47 SW6       30.26S WCI  26
BURLINGTON     PTCLDY    32  21  64 SW5       30.23S WCI  27
WAUKESHA       CLEAR     28  12  50 SW8       30.23S WCI  20
WEST BEND      CLOUDY    30  14  51 SW5       30.22S WCI  25
$$

INZ001>003-010>013-019-020-222300-
NORTHWEST INDIANA

CITY           SKY/WX    TMP DP  RH WIND       PRES   REMARKS
GARY*          MOCLDY    36  10  35 W8        30.28S
MICHIGAN CITY* NOT AVBL
RENSSELAER*    NOT AVBL
VALPARAISO     CLEAR     35  16  45 SW6       30.27R WCI  30
$$

LMZ740>746-222300-
SOUTHERN LAKE MICHIGAN

STATION/POSITION TIME  SKY/WX   TEMP WIND        PRES    VSBY
                                AIR  DIR/SP/G
                 (UTC)          (F)  (DEG/KT/KT) (MB)    (MI)
HARRISON CRIB    2140            35  270/  7/  8   N/A
BURNHAM HARBOR   2200            34  240/  2/  9   N/A
CALUMET HARBOR   2142            34  240/  4/  8 1024.3R
BURNS HARBOR     2140            35  280/  5/  8 1025.4S
MICHIGAN CITY    2140            33  260/  7/  9   N/A
$$

ABBREVIATIONS USED IN REMARKS
   TC - TEMPERATURE IN CELSIUS
  WCI - WIND CHILL INDEX
   HX - HEAT INDEX
  VSB - VISIBILITY
$$




USA.gov is the U.S. government's official web portal to all federal, state and local government web resources and services.